Location: Staunton
(38.1490°N, 79.0720°W)
Time: 05:58:04
(UTC-04:00)

ISS - Pass Details

Date: 19 May 2019
Orbit: 407 x 410 km, 51.6° (Epoch: 21 May)

Event Time Altitude Azimuth Distance (km) Brightness Sun altitude
Rises 03:54:13 0° 314° (NW) 2,336 0.1 -20.8°
Reaches altitude 10° 03:56:24 10° 322° (NW) 1,473 -0.9 -20.5°
Maximum altitude 03:59:32 40° 34° (NNE) 619 -2.4 -20.1°
Drops below altitude 10° 04:02:40 10° 106° (ESE) 1,467 -0.7 -19.7°
Sets 04:04:49 0° 114° (ESE) 2,325 0.3 -19.4°
